TimeMST,TemperatureF,Dew PointF,Humidity,Sea Level PressureIn,VisibilityMPH,Wind Direction,Wind SpeedMPH,Gust SpeedMPH,PrecipitationIn,Events,Conditions,WindDirDegrees,DateUTC
12:11 AM,15.8,14.0,93,29.83,0.8,NE,15.0,18.4,N/A,Snow,Snow,50,2012-12-09 07:11:00
12:31 AM,15.8,14.0,93,29.84,0.5,NE,11.5,-,N/A,Snow,Snow,50,2012-12-09 07:31:00
12:49 AM,14.0,12.2,93,29.84,0.5,NE,10.4,-,N/A,Snow,Heavy Snow,50,2012-12-09 07:49:00
1:06 AM,14.0,12.2,93,29.84,0.5,ENE,10.4,-,N/A,Snow,Heavy Snow,60,2012-12-09 08:06:00
1:31 AM,14.0,12.2,93,29.85,0.5,ENE,10.4,-,N/A,Snow,Heavy Snow,60,2012-12-09 08:31:00
1:49 AM,14.0,12.2,93,29.85,0.8,ENE,8.1,-,N/A,Snow,Snow,60,2012-12-09 08:49:00
2:08 AM,14.0,12.2,93,29.85,1.0,NE,9.2,-,N/A,Snow,Snow,50,2012-12-09 09:08:00
2:28 AM,14.0,12.2,93,29.85,1.5,NE,10.4,-,N/A,Snow,Light Snow,40,2012-12-09 09:28:00
2:48 AM,14.0,10.4,86,29.87,2.0,NE,6.9,-,N/A,Snow,Light Snow,40,2012-12-09 09:48:00
3:07 AM,14.0,10.4,86,29.86,1.5,NNE,10.4,-,N/A,Snow,Light Snow,30,2012-12-09 10:07:00
3:31 AM,14.0,10.4,86,29.87,1.5,NNE,12.7,-,N/A,Snow,Light Snow,30,2012-12-09 10:31:00
3:51 AM,12.2,10.4,92,29.87,3.0,North,5.8,-,N/A,Snow,Light Snow,360,2012-12-09 10:51:00
4:06 AM,14.0,10.4,86,29.87,4.0,North,9.2,-,N/A,Snow,Light Snow,10,2012-12-09 11:06:00
4:31 AM,12.2,10.4,92,29.88,1.8,NNE,6.9,-,N/A,Snow,Light Snow,30,2012-12-09 11:31:00
4:47 AM,12.2,10.4,92,29.89,2.0,NNE,6.9,-,N/A,Snow,Light Snow,20,2012-12-09 11:47:00
5:11 AM,12.2,10.4,92,29.89,2.5,North,5.8,-,N/A,Snow,Light Snow,10,2012-12-09 12:11:00
5:30 AM,12.2,8.6,85,29.90,3.0,North,6.9,-,N/A,Snow,Light Snow,10,2012-12-09 12:30:00
5:51 AM,12.2,8.6,85,29.91,10.0,NNE,4.6,-,N/A,,Overcast,30,2012-12-09 12:51:00
6:08 AM,12.2,5.0,73,29.91,10.0,NNE,11.5,-,N/A,,Overcast,20,2012-12-09 13:08:00
6:29 AM,12.2,5.0,73,29.93,10.0,NNE,9.2,-,N/A,,Overcast,30,2012-12-09 13:29:00
6:51 AM,12.2,5.0,73,29.94,10.0,NNE,8.1,-,N/A,,Overcast,30,2012-12-09 13:51:00
7:07 AM,10.4,6.8,85,29.94,10.0,NNE,9.2,-,N/A,,Overcast,30,2012-12-09 14:07:00
7:30 AM,10.4,5.0,79,29.95,10.0,NNE,10.4,17.3,N/A,,Overcast,20,2012-12-09 14:30:00
7:47 AM,10.4,5.0,79,29.96,7.0,NNE,12.7,20.7,N/A,Snow,Light Snow,20,2012-12-09 14:47:00
8:11 AM,10.4,5.0,79,29.99,7.0,North,15.0,21.9,N/A,,Overcast,10,2012-12-09 15:11:00
8:30 AM,10.4,5.0,79,29.99,10.0,North,15.0,-,N/A,,Overcast,360,2012-12-09 15:30:00
8:50 AM,10.4,3.2,73,30.00,7.0,North,16.1,20.7,N/A,,Overcast,360,2012-12-09 15:50:00
9:11 AM,10.4,3.2,73,30.00,7.0,North,15.0,24.2,N/A,,Overcast,360,2012-12-09 16:11:00
9:26 AM,10.4,3.2,73,30.02,7.0,North,13.8,20.7,N/A,,Overcast,360,2012-12-09 16:26:00
9:47 AM,10.4,3.2,73,30.02,10.0,North,13.8,-,N/A,,Overcast,360,2012-12-09 16:47:00
10:09 AM,10.4,3.2,73,30.03,10.0,North,12.7,19.6,N/A,,Overcast,360,2012-12-09 17:09:00
10:28 AM,10.4,3.2,73,30.03,10.0,North,15.0,-,N/A,,Scattered Clouds,360,2012-12-09 17:28:00
10:51 AM,12.2,3.2,67,30.03,10.0,North,16.1,23.0,N/A,,Scattered Clouds,360,2012-12-09 17:51:00
11:08 AM,12.2,3.2,67,30.02,10.0,North,13.8,-,N/A,,Scattered Clouds,360,2012-12-09 18:08:00
11:27 AM,12.2,3.2,67,30.03,10.0,North,13.8,-,N/A,,Mostly Cloudy,10,2012-12-09 18:27:00
11:50 AM,12.2,3.2,67,30.02,10.0,North,16.1,-,N/A,,Mostly Cloudy,360,2012-12-09 18:50:00
12:10 PM,12.2,3.2,67,30.02,10.0,North,13.8,23.0,N/A,,Overcast,10,2012-12-09 19:10:00
12:31 PM,12.2,3.2,67,30.02,10.0,NNE,16.1,23.0,N/A,,Overcast,20,2012-12-09 19:31:00
12:47 PM,12.2,3.2,67,30.01,10.0,North,13.8,19.6,N/A,,Mostly Cloudy,10,2012-12-09 19:47:00
1:11 PM,12.2,1.4,62,30.01,10.0,North,16.1,21.9,N/A,,Mostly Cloudy,10,2012-12-09 20:11:00
1:29 PM,12.2,1.4,62,30.02,10.0,North,11.5,19.6,N/A,,Mostly Cloudy,10,2012-12-09 20:29:00
1:50 PM,12.2,1.4,62,30.01,10.0,North,12.7,18.4,N/A,,Scattered Clouds,10,2012-12-09 20:50:00
2:07 PM,12.2,-0.4,57,30.02,10.0,North,13.8,19.6,N/A,,Scattered Clouds,10,2012-12-09 21:07:00
2:27 PM,12.2,1.4,62,30.02,10.0,North,10.4,-,N/A,,Scattered Clouds,10,2012-12-09 21:27:00
2:47 PM,12.2,1.4,62,30.03,10.0,North,9.2,-,N/A,,Scattered Clouds,10,2012-12-09 21:47:00
3:11 PM,10.4,-0.4,62,30.04,10.0,North,6.9,-,N/A,,Mostly Cloudy,10,2012-12-09 22:11:00
3:29 PM,10.4,1.4,67,30.04,10.0,North,9.2,-,N/A,,Scattered Clouds,10,2012-12-09 22:29:00
3:51 PM,10.4,1.4,67,30.05,10.0,North,9.2,-,N/A,,Mostly Cloudy,10,2012-12-09 22:51:00
4:07 PM,10.4,-0.4,62,30.05,10.0,NNE,8.1,-,N/A,,Scattered Clouds,20,2012-12-09 23:07:00
4:28 PM,6.8,-0.4,72,30.05,10.0,North,4.6,-,N/A,,Mostly Cloudy,360,2012-12-09 23:28:00
4:51 PM,6.8,-4.0,61,30.05,10.0,North,4.6,-,N/A,,Scattered Clouds,350,2012-12-09 23:51:00
5:09 PM,3.2,-4.0,72,30.06,10.0,North,4.6,-,N/A,,Scattered Clouds,350,2012-12-10 00:09:00
5:28 PM,3.2,-4.0,72,30.06,10.0,North,3.5,-,N/A,,Scattered Clouds,350,2012-12-10 00:28:00
5:47 PM,3.2,-4.0,72,30.07,10.0,NNW,4.6,-,N/A,,Clear,340,2012-12-10 00:47:00
6:11 PM,-0.4,-5.8,78,30.06,10.0,West,5.8,-,N/A,,Clear,260,2012-12-10 01:11:00
6:31 PM,-0.4,-5.8,78,30.07,10.0,West,6.9,-,N/A,,Clear,260,2012-12-10 01:31:00
6:46 PM,-0.4,-4.0,85,30.07,10.0,West,6.9,-,N/A,,Clear,260,2012-12-10 01:46:00
7:09 PM,-0.4,-2.2,92,30.06,10.0,WSW,5.8,-,N/A,,Clear,250,2012-12-10 02:09:00
7:29 PM,-2.2,-5.8,85,30.06,10.0,West,5.8,-,N/A,,Clear,280,2012-12-10 02:29:00
7:51 PM,-5.8,-9.4,84,30.05,10.0,West,5.8,-,N/A,,Clear,260,2012-12-10 02:51:00
8:11 PM,-4.0,-5.8,92,30.05,10.0,WSW,5.8,-,N/A,,Clear,240,2012-12-10 03:11:00
8:26 PM,-0.4,-5.8,78,30.04,10.0,WSW,6.9,-,N/A,,Clear,250,2012-12-10 03:26:00
8:51 PM,1.4,-4.0,78,30.03,10.0,WSW,8.1,-,N/A,,Clear,240,2012-12-10 03:51:00
9:06 PM,-5.8,-9.4,84,30.02,10.0,SW,9.2,-,N/A,,Clear,220,2012-12-10 04:06:00
9:30 PM,-0.4,-5.8,78,30.00,10.0,SW,8.1,-,N/A,,Clear,220,2012-12-10 04:30:00
9:47 PM,-5.8,-7.6,92,30.00,10.0,SW,10.4,-,N/A,,Clear,220,2012-12-10 04:47:00
10:11 PM,1.4,-5.8,72,29.98,10.0,SSW,10.4,-,N/A,,Clear,210,2012-12-10 05:11:00
10:27 PM,1.4,-5.8,72,29.97,10.0,SW,11.5,-,N/A,,Clear,220,2012-12-10 05:27:00
10:48 PM,1.4,-7.6,66,29.96,10.0,SSW,10.4,-,N/A,,Clear,210,2012-12-10 05:48:00
11:08 PM,1.4,-5.8,72,29.95,10.0,SSW,8.1,-,N/A,,Clear,210,2012-12-10 06:08:00
11:31 PM,-0.4,-5.8,78,29.94,10.0,SSW,9.2,-,N/A,,Clear,210,2012-12-10 06:31:00
11:47 PM,1.4,-4.0,78,29.94,10.0,SSW,9.2,-,N/A,,Clear,210,2012-12-10 06:47:00